Location: Tyumen
(57.1527°N, 65.5323°E)
Time: 04:15:59
(UTC+05:00)

ISS - Pass Details

Date: 03 December 2021
Orbit: 413 x 422 km, 51.6° (Epoch: 22 January)

Event Time Altitude Azimuth Distance (km) Brightness Sun altitude
Rises 17:56:07 0° 266° (W) 2,387 1.7 -14.4°
Reaches altitude 10° 17:58:25 10° 253° (WSW) 1,518 0.5 -14.6°
Maximum altitude 18:01:20 26° 195° (SSW) 868 -1.8 -15.0°
Enters shadow 18:04:04 11° 138° (SE) 1,456 -1.3 -15.4°
